SHIELDS 1

Last updated on Wed Sep 17 2025 00:03:49 GMT+0000 (Coordinated Universal Time)

1 43850U 18104B 25259.59807809 .00051510 00000+0 45617-3 0 9990 2 43850 85.0143 326.4941 0007233 120.9824 239.2155 15.68379541376937
UTC large
Height (km)
Speed (km/s)
/
Latitude / Longitude
Inclination (degrees)
Orbital Period (minutes)
Azimuth
Elevation
Range (km)
Doppler Factor

Next 0 passes for location: London (51.5072 / 0.1276)

Sorry there are no passes over London.